パンスターズ彗星

435P/PanSTARRS (2026)

English version
Home page
Updated on July 12, 2026

---------------------------------------------------------------------

・ プロフィール

・ 軌道要素

Epoch 2026 June 9.0 TT = JDT 2461200.5
T 2026 Oct. 26.58902 TT                                 Pike
q   2.0628904            (2000.0)            P               Q
n   0.18758625     Peri.  244.16172     +0.90682651     +0.27444283
a   3.0222847      Node    98.52369     -0.16382725     +0.92880124
e   0.3174401      Incl.   18.87411     -0.38836363     +0.24901684
P   5.25
From 91 observations 2002 Jan. 9-2026 June 23, mean residual 0".1.

・ 光度変化

        m1 = 17.0 + 5 logΔ + 8.0 log r

---------------------------------------------------------------------

軌道要素はM.P.E.C. 2026-N12に掲載されたものです。
光度グラフはComet for Windowsで作成したものです。

---------------------------------------------------------------------

Copyright(C) Seiichi Yoshida (comet@aerith.net). All rights reserved.